Time,TemperatureF,DewpointF,PressureIn,WindDirection,WindDirectionDegrees,WindSpeedMPH,WindSpeedGustMPH,Humidity,HourlyPrecipIn,Conditions,Clouds,dailyrainin,SoftwareType,DateUTC
2013-10-19 00:00:00,47.7,46.9,30.03,ESE,109,0.0,0.0,97,0.00,,,0.00,Wunderground v.1.15,2013-10-19 07:00:00,
2013-10-19 00:10:00,47.5,46.7,30.03,ESE,109,0.0,0.0,97,0.00,,,0.00,Wunderground v.1.15,2013-10-19 07:10:00,
2013-10-19 00:20:00,47.3,46.5,30.03,ESE,109,0.0,0.0,97,0.00,,,0.00,Wunderground v.1.15,2013-10-19 07:20:00,
2013-10-19 00:25:00,47.2,46.4,30.03,ESE,109,0.0,0.0,97,0.00,,,0.00,Wunderground v.1.15,2013-10-19 07:25:00,
2013-10-19 00:35:00,46.9,46.1,30.03,ESE,109,0.0,0.0,97,0.00,,,0.00,Wunderground v.1.15,2013-10-19 07:35:00,
2013-10-19 00:45:00,46.7,45.9,30.03,ESE,109,0.0,0.0,97,0.00,,,0.00,Wunderground v.1.15,2013-10-19 07:45:00,
2013-10-19 00:55:00,46.5,45.7,30.03,ESE,109,0.0,0.0,97,0.00,,,0.00,Wunderground v.1.15,2013-10-19 07:55:00,
2013-10-19 01:00:00,46.5,46.0,30.04,ESE,109,0.0,0.0,98,0.00,,,0.00,Wunderground v.1.15,2013-10-19 08:00:00,
2013-10-19 01:10:00,46.4,45.9,30.04,ESE,109,0.0,0.0,98,0.00,,,0.00,Wunderground v.1.15,2013-10-19 08:10:00,
2013-10-19 01:20:00,46.2,45.7,30.04,ESE,109,0.0,0.0,98,0.00,,,0.00,Wunderground v.1.15,2013-10-19 08:20:00,
2013-10-19 01:30:00,45.9,45.1,30.04,ESE,109,0.0,0.0,97,0.00,,,0.00,Wunderground v.1.15,2013-10-19 08:30:00,
2013-10-19 01:40:00,45.5,44.7,30.04,ESE,109,0.0,0.0,97,0.00,,,0.00,Wunderground v.1.15,2013-10-19 08:40:00,
2013-10-19 01:50:00,44.9,44.1,30.04,ESE,109,0.0,0.0,97,0.00,,,0.00,Wunderground v.1.15,2013-10-19 08:50:00,
2013-10-19 02:00:00,44.8,44.3,30.04,ESE,109,0.0,0.0,98,0.00,,,0.00,Wunderground v.1.15,2013-10-19 09:00:00,
2013-10-19 02:10:00,44.7,44.2,30.04,ESE,109,0.0,0.0,98,0.00,,,0.00,Wunderground v.1.15,2013-10-19 09:10:00,
2013-10-19 02:20:00,44.5,44.0,30.05,ESE,109,0.0,0.0,98,0.00,,,0.00,Wunderground v.1.15,2013-10-19 09:20:00,
2013-10-19 02:25:00,44.4,43.9,30.05,ESE,109,0.0,0.0,98,0.00,,,0.00,Wunderground v.1.15,2013-10-19 09:25:00,
2013-10-19 02:35:00,44.3,43.8,30.05,ESE,109,0.0,0.0,98,0.00,,,0.00,Wunderground v.1.15,2013-10-19 09:35:00,
2013-10-19 02:40:00,44.2,43.7,30.05,ESE,109,0.0,0.0,98,0.00,,,0.00,Wunderground v.1.15,2013-10-19 09:40:00,
2013-10-19 02:50:00,44.0,43.5,30.05,ESE,109,0.0,0.0,98,0.00,,,0.00,Wunderground v.1.15,2013-10-19 09:50:00,
2013-10-19 03:00:00,43.9,43.4,30.05,ESE,109,0.0,0.0,98,0.00,,,0.00,Wunderground v.1.15,2013-10-19 10:00:00,
2013-10-19 03:10:00,43.8,43.3,30.05,ESE,109,0.0,0.0,98,0.00,,,0.00,Wunderground v.1.15,2013-10-19 10:10:00,
2013-10-19 03:20:00,43.8,43.3,30.05,ESE,109,0.0,0.0,98,0.00,,,0.00,Wunderground v.1.15,2013-10-19 10:20:00,
2013-10-19 03:25:00,43.8,43.3,30.05,ESE,109,0.0,0.0,98,0.00,,,0.00,Wunderground v.1.15,2013-10-19 10:25:00,
2013-10-19 03:35:00,43.6,43.1,30.05,ESE,109,0.0,0.0,98,0.00,,,0.00,Wunderground v.1.15,2013-10-19 10:35:00,
2013-10-19 03:40:00,43.6,43.1,30.05,ESE,109,0.0,0.0,98,0.00,,,0.00,Wunderground v.1.15,2013-10-19 10:40:00,
2013-10-19 03:50:00,43.5,43.0,30.05,ESE,109,0.0,0.0,98,0.00,,,0.00,Wunderground v.1.15,2013-10-19 10:50:00,
2013-10-19 04:00:00,43.6,43.1,30.05,ESE,109,0.0,0.0,98,0.00,,,0.00,Wunderground v.1.15,2013-10-19 11:00:00,
2013-10-19 04:10:00,43.6,43.3,30.05,ESE,109,0.0,0.0,99,0.00,,,0.00,Wunderground v.1.15,2013-10-19 11:10:00,
2013-10-19 04:20:00,43.6,43.3,30.05,ESE,109,0.0,0.0,99,0.00,,,0.00,Wunderground v.1.15,2013-10-19 11:20:00,
2013-10-19 04:25:00,43.6,43.3,30.05,ESE,109,0.0,0.0,99,0.00,,,0.00,Wunderground v.1.15,2013-10-19 11:25:00,
2013-10-19 04:35:00,43.6,43.3,30.05,ESE,109,0.0,0.0,99,0.00,,,0.00,Wunderground v.1.15,2013-10-19 11:35:00,
2013-10-19 04:45:00,43.6,43.3,30.05,ESE,109,0.0,0.0,99,0.00,,,0.00,Wunderground v.1.15,2013-10-19 11:45:00,
2013-10-19 04:55:00,43.6,43.3,30.05,ESE,109,0.0,0.0,99,0.00,,,0.00,Wunderground v.1.15,2013-10-19 11:55:00,
2013-10-19 05:00:00,43.6,43.3,30.05,ESE,109,0.0,0.0,99,0.00,,,0.00,Wunderground v.1.15,2013-10-19 12:00:00,
2013-10-19 05:10:00,43.5,43.2,30.05,ESE,109,0.0,0.0,99,0.00,,,0.00,Wunderground v.1.15,2013-10-19 12:10:00,
2013-10-19 05:20:00,43.4,43.1,30.05,ESE,109,0.0,0.0,99,0.00,,,0.00,Wunderground v.1.15,2013-10-19 12:20:00,
2013-10-19 05:25:00,43.3,43.0,30.06,ESE,109,0.0,0.0,99,0.00,,,0.00,Wunderground v.1.15,2013-10-19 12:25:00,
2013-10-19 05:35:00,43.2,42.9,30.06,ESE,109,0.0,0.0,99,0.00,,,0.00,Wunderground v.1.15,2013-10-19 12:35:00,
2013-10-19 05:45:00,43.2,42.9,30.06,ESE,109,0.0,0.0,99,0.00,,,0.00,Wunderground v.1.15,2013-10-19 12:45:00,
2013-10-19 05:55:00,43.1,42.8,30.06,ESE,109,0.0,0.0,99,0.00,,,0.00,Wunderground v.1.15,2013-10-19 12:55:00,
2013-10-19 06:00:00,43.1,42.8,30.06,ESE,109,0.0,0.0,99,0.00,,,0.00,Wunderground v.1.15,2013-10-19 13:00:00,
2013-10-19 06:10:00,43.1,42.8,30.06,ESE,109,0.0,0.0,99,0.00,,,0.00,Wunderground v.1.15,2013-10-19 13:10:00,
2013-10-19 06:20:00,43.1,42.8,30.06,ESE,109,0.0,0.0,99,0.00,,,0.00,Wunderground v.1.15,2013-10-19 13:20:00,
2013-10-19 06:25:00,43.2,42.9,30.06,ESE,109,0.0,0.0,99,0.00,,,0.00,Wunderground v.1.15,2013-10-19 13:25:00,
2013-10-19 06:35:00,43.2,42.9,30.06,ESE,109,0.0,0.0,99,0.00,,,0.00,Wunderground v.1.15,2013-10-19 13:35:00,
2013-10-19 06:45:00,43.1,42.8,30.06,ESE,109,0.0,0.0,99,0.00,,,0.00,Wunderground v.1.15,2013-10-19 13:45:00,
2013-10-19 06:55:00,42.9,42.6,30.06,ESE,109,0.0,0.0,99,0.00,,,0.00,Wunderground v.1.15,2013-10-19 13:55:00,
2013-10-19 07:00:00,42.9,42.6,30.06,ESE,109,0.0,0.0,99,0.00,,,0.00,Wunderground v.1.15,2013-10-19 14:00:00,
2013-10-19 07:10:00,42.7,42.4,30.06,ESE,109,0.0,0.0,99,0.00,,,0.00,Wunderground v.1.15,2013-10-19 14:10:00,
2013-10-19 07:20:00,42.5,42.2,30.06,ESE,109,0.0,0.0,99,0.00,,,0.00,Wunderground v.1.15,2013-10-19 14:20:00,
2013-10-19 07:25:00,42.4,42.1,30.06,ESE,109,0.0,0.0,99,0.00,,,0.00,Wunderground v.1.15,2013-10-19 14:25:00,
2013-10-19 07:35:00,42.2,41.9,30.06,ESE,109,0.0,0.0,99,0.00,,,0.00,Wunderground v.1.15,2013-10-19 14:35:00,
2013-10-19 07:40:00,42.1,41.8,30.06,ESE,109,0.0,0.0,99,0.00,,,0.00,Wunderground v.1.15,2013-10-19 14:40:00,
2013-10-19 07:50:00,41.9,41.6,30.06,ESE,109,0.0,0.0,99,0.00,,,0.00,Wunderground v.1.15,2013-10-19 14:50:00,
2013-10-19 08:00:00,41.8,41.5,30.07,ESE,109,0.0,0.0,99,0.00,,,0.00,Wunderground v.1.15,2013-10-19 15:00:00,
2013-10-19 08:10:00,41.8,41.5,30.07,ESE,109,0.0,0.0,99,0.00,,,0.00,Wunderground v.1.15,2013-10-19 15:10:00,
2013-10-19 08:20:00,41.9,41.6,30.07,ESE,109,0.0,0.0,99,0.00,,,0.00,Wunderground v.1.15,2013-10-19 15:20:00,
2013-10-19 08:25:00,42.0,41.7,30.07,ESE,109,0.0,0.0,99,0.00,,,0.00,Wunderground v.1.15,2013-10-19 15:25:00,
2013-10-19 08:35:00,42.2,41.9,30.07,ESE,109,0.0,0.0,99,0.00,,,0.00,Wunderground v.1.15,2013-10-19 15:35:00,
2013-10-19 08:45:00,42.6,42.3,30.08,NE,56,0.0,0.0,99,0.00,,,0.00,Wunderground v.1.15,2013-10-19 15:45:00,
2013-10-19 08:55:00,42.8,42.5,30.08,NE,56,0.0,0.0,99,0.00,,,0.00,Wunderground v.1.15,2013-10-19 15:55:00,
2013-10-19 09:00:00,43.1,42.8,30.08,NE,56,0.0,0.0,99,0.00,,,0.00,Wunderground v.1.15,2013-10-19 16:00:00,
2013-10-19 09:10:00,43.5,43.2,30.08,WNW,300,0.0,0.0,99,0.00,,,0.00,Wunderground v.1.15,2013-10-19 16:10:00,
2013-10-19 09:20:00,43.7,43.4,30.09,WNW,300,0.0,0.0,99,0.00,,,0.00,Wunderground v.1.15,2013-10-19 16:20:00,
2013-10-19 09:25:00,43.8,43.5,30.09,WNW,301,0.0,0.0,99,0.00,,,0.00,Wunderground v.1.15,2013-10-19 16:25:00,
2013-10-19 09:35:00,44.2,43.9,30.09,WNW,301,0.0,0.0,99,0.00,,,0.00,Wunderground v.1.15,2013-10-19 16:35:00,
2013-10-19 09:40:00,44.5,44.2,30.09,WNW,301,0.0,0.0,99,0.00,,,0.00,Wunderground v.1.15,2013-10-19 16:40:00,
2013-10-19 09:50:00,44.9,44.9,30.09,WNW,301,0.0,0.0,100,0.00,,,0.00,Wunderground v.1.15,2013-10-19 16:50:00,
2013-10-19 09:55:00,45.1,44.8,30.09,WNW,301,0.0,0.0,99,0.00,,,0.00,Wunderground v.1.15,2013-10-19 16:55:00,
2013-10-19 10:00:00,45.4,45.4,30.09,WNW,301,0.0,0.0,100,0.00,,,0.00,Wunderground v.1.15,2013-10-19 17:00:00,
2013-10-19 10:10:00,45.9,45.6,30.09,WNW,301,0.0,0.0,99,0.00,,,0.00,Wunderground v.1.15,2013-10-19 17:10:00,
2013-10-19 10:20:00,46.7,46.7,30.09,WNW,301,0.0,0.0,100,0.00,,,0.00,Wunderground v.1.15,2013-10-19 17:20:00,
2013-10-19 10:25:00,47.3,47.3,30.09,WNW,301,0.0,0.0,100,0.00,,,0.00,Wunderground v.1.15,2013-10-19 17:25:00,
2013-10-19 10:35:00,48.1,48.1,30.09,WNW,301,0.0,0.0,100,0.00,,,0.00,Wunderground v.1.15,2013-10-19 17:35:00,
2013-10-19 10:45:00,48.8,48.8,30.09,WNW,301,0.0,0.0,100,0.00,,,0.00,Wunderground v.1.15,2013-10-19 17:45:00,
2013-10-19 10:55:00,49.5,49.5,30.09,WNW,301,0.0,0.0,100,0.00,,,0.00,Wunderground v.1.15,2013-10-19 17:55:00,
2013-10-19 11:00:00,50.1,50.1,30.09,WNW,301,0.0,0.0,100,0.00,,,0.00,Wunderground v.1.15,2013-10-19 18:00:00,
2013-10-19 11:10:00,51.1,50.8,30.09,WNW,302,0.0,0.0,99,0.00,,,0.00,Wunderground v.1.15,2013-10-19 18:10:00,
2013-10-19 11:20:00,51.9,51.1,30.08,WNW,302,0.0,0.0,97,0.00,,,0.00,Wunderground v.1.15,2013-10-19 18:20:00,
2013-10-19 11:25:00,52.7,52.2,30.09,WNW,302,0.0,0.0,98,0.00,,,0.00,Wunderground v.1.15,2013-10-19 18:25:00,
2013-10-19 11:35:00,53.6,52.2,30.09,NNW,342,0.0,1.0,95,0.00,,,0.00,Wunderground v.1.15,2013-10-19 18:35:00,
2013-10-19 11:45:00,54.3,52.6,30.09,NNW,342,0.0,1.0,94,0.00,,,0.00,Wunderground v.1.15,2013-10-19 18:45:00,
2013-10-19 11:55:00,55.5,53.2,30.08,NNW,342,0.0,0.0,92,0.00,,,0.00,Wunderground v.1.15,2013-10-19 18:55:00,
2013-10-19 12:00:00,56.2,53.3,30.08,NNW,342,0.0,0.0,90,0.00,,,0.00,Wunderground v.1.15,2013-10-19 19:00:00,
2013-10-19 12:10:00,57.5,53.7,30.08,NNW,342,0.0,1.0,87,0.00,,,0.00,Wunderground v.1.15,2013-10-19 19:10:00,
2013-10-19 12:20:00,58.5,54.6,30.08,NNE,15,1.0,1.0,87,0.00,,,0.00,Wunderground v.1.15,2013-10-19 19:20:00,
2013-10-19 12:30:00,59.2,53.7,30.08,NW,308,1.0,2.0,82,0.00,,,0.00,Wunderground v.1.15,2013-10-19 19:30:00,
2013-10-19 12:40:00,59.9,54.4,30.08,NW,304,3.0,3.0,82,0.00,,,0.00,Wunderground v.1.15,2013-10-19 19:40:00,
2013-10-19 12:50:00,60.9,55.7,30.08,North,5,2.0,2.0,83,0.00,,,0.00,Wunderground v.1.15,2013-10-19 19:50:00,
2013-10-19 13:00:00,61.9,55.3,30.07,West,278,1.0,3.0,79,0.00,,,0.00,Wunderground v.1.15,2013-10-19 20:00:00,
2013-10-19 13:10:00,62.5,56.2,30.07,NW,310,2.0,3.0,80,0.00,,,0.00,Wunderground v.1.15,2013-10-19 20:10:00,
2013-10-19 13:20:00,63.2,56.2,30.07,WNW,301,2.0,3.0,78,0.00,,,0.00,Wunderground v.1.15,2013-10-19 20:20:00,
2013-10-19 13:30:00,63.8,55.7,30.07,WNW,292,2.0,3.0,75,0.00,,,0.00,Wunderground v.1.15,2013-10-19 20:30:00,
2013-10-19 13:40:00,64.3,57.3,30.06,NE,44,1.0,2.0,78,0.00,,,0.00,Wunderground v.1.15,2013-10-19 20:40:00,
2013-10-19 13:50:00,65.6,57.1,30.06,NNE,15,0.0,1.0,74,0.00,,,0.00,Wunderground v.1.15,2013-10-19 20:50:00,
2013-10-19 14:00:00,65.6,57.1,30.06,North,360,1.0,2.0,74,0.00,,,0.00,Wunderground v.1.15,2013-10-19 21:00:00,
2013-10-19 14:10:00,66.2,57.3,30.06,NE,46,1.0,1.0,73,0.00,,,0.00,Wunderground v.1.15,2013-10-19 21:10:00,
2013-10-19 14:20:00,66.8,57.1,30.06,WSW,244,1.0,1.0,71,0.00,,,0.00,Wunderground v.1.15,2013-10-19 21:20:00,
2013-10-19 14:30:00,66.9,56.8,30.05,NNW,328,1.0,1.0,70,0.00,,,0.00,Wunderground v.1.15,2013-10-19 21:30:00,
2013-10-19 14:35:00,67.2,57.1,30.05,NNW,327,0.0,1.0,70,0.00,,,0.00,Wunderground v.1.15,2013-10-19 21:35:00,
2013-10-19 14:45:00,67.8,57.7,30.05,NNE,25,1.0,3.0,70,0.00,,,0.00,Wunderground v.1.15,2013-10-19 21:45:00,
2013-10-19 14:50:00,68.2,56.8,30.05,NW,321,1.0,1.0,67,0.00,,,0.00,Wunderground v.1.15,2013-10-19 21:50:00,
2013-10-19 15:00:00,68.5,58.3,30.05,WNW,299,0.0,0.0,70,0.00,,,0.00,Wunderground v.1.15,2013-10-19 22:00:00,
2013-10-19 15:10:00,68.2,57.6,30.05,WNW,302,1.0,1.0,69,0.00,,,0.00,Wunderground v.1.15,2013-10-19 22:10:00,
2013-10-19 15:20:00,68.0,57.8,30.05,NW,316,1.0,2.0,70,0.00,,,0.00,Wunderground v.1.15,2013-10-19 22:20:00,
2013-10-19 15:30:00,68.2,58.0,30.05,West,270,2.0,2.0,70,0.00,,,0.00,Wunderground v.1.15,2013-10-19 22:30:00,
2013-10-19 15:35:00,67.9,58.5,30.05,NNW,341,1.0,4.0,72,0.00,,,0.00,Wunderground v.1.15,2013-10-19 22:35:00,
2013-10-19 15:45:00,67.5,57.8,30.05,WNW,296,1.0,1.0,71,0.00,,,0.00,Wunderground v.1.15,2013-10-19 22:45:00,
2013-10-19 15:50:00,67.1,58.2,30.05,NNW,338,1.0,1.0,73,0.00,,,0.00,Wunderground v.1.15,2013-10-19 22:50:00,
2013-10-19 16:00:00,65.8,57.3,30.05,West,275,0.0,2.0,74,0.00,,,0.00,Wunderground v.1.15,2013-10-19 23:00:00,
2013-10-19 16:10:00,64.7,57.3,30.05,West,267,1.0,1.0,77,0.00,,,0.00,Wunderground v.1.15,2013-10-19 23:10:00,
2013-10-19 16:20:00,64.3,57.3,30.05,WNW,288,0.0,2.0,78,0.00,,,0.00,Wunderground v.1.15,2013-10-19 23:20:00,
2013-10-19 16:30:00,63.4,57.1,30.05,NW,305,0.0,0.0,80,0.00,,,0.00,Wunderground v.1.15,2013-10-19 23:30:00,
2013-10-19 16:40:00,62.1,56.9,30.05,WNW,289,1.0,2.0,83,0.00,,,0.00,Wunderground v.1.15,2013-10-19 23:40:00,
2013-10-19 16:45:00,61.6,56.4,30.05,NW,322,1.0,2.0,83,0.00,,,0.00,Wunderground v.1.15,2013-10-19 23:45:00,
2013-10-19 16:55:00,60.7,56.2,30.06,NW,321,1.0,1.0,85,0.00,,,0.00,Wunderground v.1.15,2013-10-19 23:55:00,
2013-10-19 17:00:00,60.3,55.4,30.05,NW,323,1.0,1.0,84,0.00,,,0.00,Wunderground v.1.15,2013-10-20 00:00:00,
2013-10-19 17:10:00,59.6,55.1,30.05,West,267,0.0,0.0,85,0.00,,,0.00,Wunderground v.1.15,2013-10-20 00:10:00,
2013-10-19 17:20:00,58.9,54.7,30.05,NW,308,1.0,1.0,86,0.00,,,0.00,Wunderground v.1.15,2013-10-20 00:20:00,
2013-10-19 17:25:00,58.6,54.4,30.05,West,272,0.0,1.0,86,0.00,,,0.00,Wunderground v.1.15,2013-10-20 00:25:00,
2013-10-19 17:35:00,58.0,54.5,30.05,West,278,0.0,1.0,88,0.00,,,0.00,Wunderground v.1.15,2013-10-20 00:35:00,
2013-10-19 17:45:00,57.6,54.1,30.05,WNW,282,0.0,0.0,88,0.00,,,0.00,Wunderground v.1.15,2013-10-20 00:45:00,
2013-10-19 17:55:00,57.2,54.0,30.05,WNW,282,0.0,0.0,89,0.00,,,0.00,Wunderground v.1.15,2013-10-20 00:55:00,
2013-10-19 18:00:00,57.0,53.8,30.05,WNW,282,0.0,0.0,89,0.00,,,0.00,Wunderground v.1.15,2013-10-20 01:00:00,
2013-10-19 18:10:00,56.7,53.5,30.05,WNW,282,0.0,0.0,89,0.00,,,0.00,Wunderground v.1.15,2013-10-20 01:10:00,
2013-10-19 18:20:00,56.3,53.4,30.05,WNW,282,0.0,0.0,90,0.00,,,0.00,Wunderground v.1.15,2013-10-20 01:20:00,
2013-10-19 18:30:00,55.6,53.0,30.06,WNW,282,0.0,0.0,91,0.00,,,0.00,Wunderground v.1.15,2013-10-20 01:30:00,
2013-10-19 18:40:00,55.0,52.7,30.06,WNW,282,0.0,0.0,92,0.00,,,0.00,Wunderground v.1.15,2013-10-20 01:40:00,
2013-10-19 18:45:00,54.8,52.5,30.06,WNW,282,0.0,0.0,92,0.00,,,0.00,Wunderground v.1.15,2013-10-20 01:45:00,
2013-10-19 18:55:00,54.2,52.2,30.06,WNW,282,0.0,0.0,93,0.00,,,0.00,Wunderground v.1.15,2013-10-20 01:55:00,
2013-10-19 19:00:00,54.0,52.0,30.06,WNW,282,0.0,0.0,93,0.00,,,0.00,Wunderground v.1.15,2013-10-20 02:00:00,
2013-10-19 19:10:00,53.5,51.8,30.06,WNW,282,0.0,0.0,94,0.00,,,0.00,Wunderground v.1.15,2013-10-20 02:10:00,
2013-10-19 19:20:00,53.0,51.3,30.07,WNW,282,0.0,0.0,94,0.00,,,0.00,Wunderground v.1.15,2013-10-20 02:20:00,
2013-10-19 19:30:00,52.5,50.8,30.07,WNW,282,0.0,0.0,94,0.00,,,0.00,Wunderground v.1.15,2013-10-20 02:30:00,
2013-10-19 19:40:00,52.1,50.7,30.07,WNW,282,0.0,0.0,95,0.00,,,0.00,Wunderground v.1.15,2013-10-20 02:40:00,
2013-10-19 19:45:00,51.8,50.4,30.07,WNW,282,0.0,0.0,95,0.00,,,0.00,Wunderground v.1.15,2013-10-20 02:45:00,
2013-10-19 19:55:00,51.4,50.3,30.07,WNW,282,0.0,0.0,96,0.00,,,0.00,Wunderground v.1.15,2013-10-20 02:55:00,
2013-10-19 20:00:00,51.3,50.2,30.07,WNW,282,0.0,0.0,96,0.00,,,0.00,Wunderground v.1.15,2013-10-20 03:00:00,
2013-10-19 20:10:00,51.0,49.9,30.07,WNW,282,0.0,0.0,96,0.00,,,0.00,Wunderground v.1.15,2013-10-20 03:10:00,
2013-10-19 20:20:00,50.7,49.9,30.07,WNW,282,0.0,0.0,97,0.00,,,0.00,Wunderground v.1.15,2013-10-20 03:20:00,
2013-10-19 20:30:00,50.3,49.2,30.08,WNW,282,0.0,0.0,96,0.00,,,0.00,Wunderground v.1.15,2013-10-20 03:30:00,
2013-10-19 20:40:00,49.9,48.8,30.08,WNW,282,0.0,0.0,96,0.00,,,0.00,Wunderground v.1.15,2013-10-20 03:40:00,
2013-10-19 20:45:00,49.7,48.6,30.08,WNW,282,0.0,0.0,96,0.00,,,0.00,Wunderground v.1.15,2013-10-20 03:45:00,
2013-10-19 20:55:00,49.4,48.6,30.09,WNW,282,0.0,0.0,97,0.00,,,0.00,Wunderground v.1.15,2013-10-20 03:55:00,
2013-10-19 21:00:00,49.2,48.4,30.09,WNW,282,0.0,0.0,97,0.00,,,0.00,Wunderground v.1.15,2013-10-20 04:00:00,
2013-10-19 21:05:00,49.1,48.3,30.09,WNW,282,0.0,0.0,97,0.00,,,0.00,Wunderground v.1.15,2013-10-20 04:05:00,
2013-10-19 21:10:00,49.0,48.2,30.09,WNW,282,0.0,0.0,97,0.00,,,0.00,Wunderground v.1.15,2013-10-20 04:10:00,
2013-10-19 21:20:00,48.8,48.0,30.09,WNW,282,0.0,0.0,97,0.00,,,0.00,Wunderground v.1.15,2013-10-20 04:20:00,
2013-10-19 21:30:00,48.5,47.7,30.10,WNW,282,0.0,0.0,97,0.00,,,0.00,Wunderground v.1.15,2013-10-20 04:30:00,
2013-10-19 21:40:00,48.4,47.9,30.10,WNW,282,0.0,0.0,98,0.00,,,0.00,Wunderground v.1.15,2013-10-20 04:40:00,
2013-10-19 21:50:00,48.2,47.7,30.10,WNW,282,0.0,0.0,98,0.00,,,0.00,Wunderground v.1.15,2013-10-20 04:50:00,
2013-10-19 22:00:00,48.3,47.8,30.10,NNE,24,0.0,0.0,98,0.00,,,0.00,Wunderground v.1.15,2013-10-20 05:00:00,
2013-10-19 22:10:00,48.8,48.5,30.10,NNE,24,0.0,0.0,99,0.00,,,0.00,Wunderground v.1.15,2013-10-20 05:10:00,
2013-10-19 22:20:00,49.3,49.0,30.10,NNE,24,0.0,0.0,99,0.00,,,0.00,Wunderground v.1.15,2013-10-20 05:20:00,
2013-10-19 22:25:00,49.4,49.1,30.10,NNE,24,0.0,0.0,99,0.00,,,0.00,Wunderground v.1.15,2013-10-20 05:25:00,
2013-10-19 22:35:00,49.7,49.4,30.10,NNE,24,0.0,0.0,99,0.00,,,0.00,Wunderground v.1.15,2013-10-20 05:35:00,
2013-10-19 22:40:00,49.8,49.5,30.10,NNE,24,0.0,0.0,99,0.00,,,0.00,Wunderground v.1.15,2013-10-20 05:40:00,
2013-10-19 22:45:00,49.9,49.6,30.10,NNE,24,0.0,0.0,99,0.00,,,0.00,Wunderground v.1.15,2013-10-20 05:45:00,
2013-10-19 22:55:00,49.9,49.6,30.10,NNE,24,0.0,0.0,99,0.00,,,0.00,Wunderground v.1.15,2013-10-20 05:55:00,
2013-10-19 23:00:00,49.9,49.6,30.10,NNE,24,0.0,0.0,99,0.00,,,0.00,Wunderground v.1.15,2013-10-20 06:00:00,
2013-10-19 23:10:00,49.8,49.5,30.10,NNE,24,0.0,0.0,99,0.00,,,0.00,Wunderground v.1.15,2013-10-20 06:10:00,
2013-10-19 23:15:00,49.8,49.5,30.10,NNE,24,0.0,0.0,99,0.00,,,0.00,Wunderground v.1.15,2013-10-20 06:15:00,
2013-10-19 23:25:00,49.9,49.6,30.10,NNE,24,0.0,0.0,99,0.00,,,0.00,Wunderground v.1.15,2013-10-20 06:25:00,
2013-10-19 23:35:00,49.9,49.6,30.10,NNE,24,0.0,0.0,99,0.00,,,0.00,Wunderground v.1.15,2013-10-20 06:35:00,
2013-10-19 23:45:00,49.9,49.6,30.10,NNW,344,0.0,0.0,99,0.00,,,0.00,Wunderground v.1.15,2013-10-20 06:45:00,
2013-10-19 23:50:00,49.9,49.6,30.10,NNW,344,0.0,0.0,99,0.00,,,0.00,Wunderground v.1.15,2013-10-20 06:50:00,